Andrews, TX

4:47 PM CST on February 24, 2017 (GMT -0600)
Andrews

Weather History for KE11 - January, 2013

Change the Weather History Date:

Monday, January 28, 2013

  Actual Average (KMAF) Record (KMAF)
Temperature  
Mean Temperature 62 °F -  
Max Temperature 74 °F 57 °F 79 °F (2002)
Min Temperature 49 °F 31 °F 10 °F (1948)
Degree Days  
Heating Degree Days 4    
Growing Degree Days 12 (Base 50)    
Moisture  
Dew Point 40 °F    
Average Humidity 53    
Maximum Humidity 97    
Minimum Humidity 19    
Precipitation  
Precipitation 0.00 in - - ()
Sea Level Pressure  
Sea Level Pressure 29.89 in    
Wind  
Wind Speed 7 mph (SW)    
Max Wind Speed 23 mph    
Max Gust Speed 29 mph    
Visibility 10 miles    
Events      
Averages and records for this station are not official NWS values.
T = Trace of Precipitation, MM = Missing Value Source: NWS Daily Summary

Daily Weather History Graph

Daily Weather History Graph

Search for Another Location

Airport or City:

Trip Planner

Search our weather history database for the weather conditions in past years. The results will help you decide how hot, cold, wet, or windy it might be!

Date:

Astronomy

Jan. 28, 2013 Rise Set
Actual Time 7:46 AM CST 6:20 PM CST
Civil Twilight 7:20 AM CST 6:46 PM CST
Nautical Twilight 6:51 AM CST 7:15 PM CST
Astronomical Twilight 6:22 AM CST 7:44 PM CST
Moon 8:07 PM CST (1/28) 8:21 AM CST (1/28)
Length of Visible Light 11h 25m
Length of Day
10h 33m
Full, 98% of the Moon is Illuminated
Jan 28
Full
Feb 3
Last Quarter
Feb 10
New
Feb 17
First Quarter
Feb 25
Full

Hourly Weather History & Observations

Time (CST) Temp. Dew Point Humidity Pressure Visibility Wind Dir Wind Speed Gust Speed Precip Events Conditions
12:15 AM 51.1 °F 40.1 °F 66% 29.97 in 10.0 mi Calm Calm - N/A   Clear
12:35 AM 52.0 °F 38.7 °F 60% 29.98 in 10.0 mi SSW 5.8 mph - N/A   Clear
12:55 AM 53.1 °F 40.8 °F 63% 29.97 in 10.0 mi SSW 4.6 mph - N/A   Clear
1:15 AM 52.9 °F 43.9 °F 71% 29.98 in 10.0 mi SSW 6.9 mph - N/A   Clear
1:35 AM 53.6 °F 45.3 °F 74% 29.98 in 10.0 mi SW 5.8 mph - N/A   Clear
1:55 AM 54.5 °F 47.3 °F 77% 29.97 in 10.0 mi WSW 4.6 mph - N/A   Clear
2:15 AM 53.2 °F 46.6 °F 78% 29.97 in 10.0 mi WSW 4.6 mph - N/A   Clear
2:35 AM 54.1 °F 48.9 °F 82% 29.97 in 10.0 mi WSW 6.9 mph - N/A   Clear
2:55 AM 55.8 °F 49.8 °F 80% 29.96 in 10.0 mi WSW 5.8 mph - N/A   Clear
3:15 AM 54.7 °F 49.1 °F 81% 29.95 in 10.0 mi West 4.6 mph - N/A   Clear
3:35 AM 54.1 °F 49.1 °F 83% 29.96 in 10.0 mi WSW 4.6 mph - N/A   Clear
3:55 AM 54.1 °F 49.5 °F 84% 29.96 in 10.0 mi WSW 3.5 mph - N/A   Clear
4:15 AM 52.9 °F 48.9 °F 86% 29.95 in 10.0 mi West 4.6 mph - N/A   Clear
4:35 AM 55.4 °F 50.0 °F 82% 29.94 in 10.0 mi West 4.6 mph - N/A   Clear
4:55 AM 53.4 °F 49.5 °F 86% 29.94 in 10.0 mi Calm Calm - N/A   Clear
5:15 AM 53.1 °F 49.3 °F 87% 29.93 in 10.0 mi Calm Calm - N/A   Clear
5:55 AM 52.2 °F 49.3 °F 90% 29.93 in 10.0 mi SSW 3.5 mph - N/A   Clear
6:15 AM 51.8 °F 49.5 °F 92% 29.93 in 10.0 mi SSW 3.5 mph - N/A   Clear
6:35 AM 50.9 °F 49.1 °F 94% 29.93 in 10.0 mi SW 3.5 mph - N/A   Clear
6:55 AM 51.1 °F 49.3 °F 94% 29.94 in 10.0 mi SSW 5.8 mph - N/A   Clear
7:15 AM 51.1 °F 49.3 °F 94% 29.94 in 10.0 mi SSW 5.8 mph - N/A   Clear
7:35 AM 50.0 °F 48.9 °F 96% 29.95 in 7.0 mi South 6.9 mph - N/A   Clear
7:55 AM 49.5 °F 48.6 °F 97% 29.95 in 5.0 mi South 5.8 mph - N/A   Clear
8:15 AM 49.3 °F 48.6 °F 97% 29.95 in 4.0 mi SSW 8.1 mph - N/A   Clear
8:35 AM 50.5 °F 48.4 °F 92% 29.95 in 10.0 mi SSW 9.2 mph - N/A   Clear
8:55 AM 51.6 °F 47.7 °F 86% 29.94 in 10.0 mi SSW 9.2 mph - N/A   Clear
9:15 AM 53.2 °F 48.9 °F 85% 29.95 in 10.0 mi SSW 10.4 mph - N/A   Clear
9:35 AM 56.1 °F 50.7 °F 82% 29.95 in 10.0 mi SSW 12.7 mph - N/A   Clear
9:55 AM 57.9 °F 50.7 °F 77% 29.95 in 10.0 mi SW 11.5 mph - N/A   Clear
10:15 AM 60.1 °F 50.9 °F 72% 29.95 in 10.0 mi SSW 12.7 mph - N/A   Clear
10:35 AM 63.0 °F 50.2 °F 63% 29.95 in 10.0 mi SSW 13.8 mph 17.3 mph N/A   Clear
10:55 AM 65.1 °F 48.6 °F 55% 29.95 in 10.0 mi SSW 12.7 mph - N/A   Clear
11:15 AM 66.6 °F 47.1 °F 50% 29.95 in 10.0 mi SSW 16.1 mph - N/A   Clear
11:35 AM 68.0 °F 44.8 °F 43% 29.94 in 10.0 mi SW 17.3 mph 21.9 mph N/A   Clear
11:55 AM 69.3 °F 41.7 °F 37% 29.93 in 10.0 mi SSW 18.4 mph 25.3 mph N/A   Clear
12:15 PM 71.1 °F 39.2 °F 31% 29.92 in 10.0 mi SW 17.3 mph 24.2 mph N/A   Clear
12:35 PM 71.1 °F 37.8 °F 30% 29.91 in 10.0 mi SW 18.4 mph 25.3 mph N/A   Clear
12:55 PM 71.2 °F 37.4 °F 29% 29.90 in 10.0 mi SSW 17.3 mph 23.0 mph N/A   Clear
1:15 PM 72.1 °F 33.8 °F 24% 29.88 in 10.0 mi SW 18.4 mph 27.6 mph N/A   Clear
1:35 PM 72.9 °F 28.6 °F 19% 29.87 in 10.0 mi North - - N/A   Clear
1:55 PM 73.2 °F 28.6 °F 19% 29.86 in 10.0 mi North - - N/A   Clear
2:15 PM 73.0 °F 29.7 °F 20% 29.85 in 10.0 mi North - - N/A   Clear
2:35 PM 73.4 °F 30.6 °F 21% 29.84 in - SW 17.3 mph - N/A   Unknown
2:55 PM 73.9 °F 30.9 °F 21% 29.84 in 10.0 mi SW 23.0 mph 28.8 mph N/A   Clear
3:15 PM 74.3 °F 31.1 °F 20% 29.83 in 10.0 mi North - - N/A   Clear
3:35 PM 73.9 °F 31.1 °F 21% 29.83 in 10.0 mi SW 13.8 mph - N/A   Clear
3:55 PM 73.6 °F 29.8 °F 20% 29.82 in 10.0 mi North - - N/A   Clear
4:15 PM 72.7 °F 29.5 °F 20% 29.82 in 10.0 mi SW 16.1 mph 24.2 mph N/A   Clear
4:35 PM 72.5 °F 28.9 °F 20% 29.82 in 10.0 mi WSW 16.1 mph 19.6 mph N/A   Clear
4:55 PM 71.8 °F 29.1 °F 21% 29.82 in 10.0 mi North - - N/A   Clear
5:15 PM 71.1 °F 29.5 °F 21% 29.82 in 10.0 mi WSW 13.8 mph - N/A   Clear
5:35 PM 70.2 °F 27.5 °F 20% 29.83 in 10.0 mi West 10.4 mph - N/A   Clear
5:55 PM 69.1 °F 27.7 °F 21% 29.82 in 10.0 mi WSW 9.2 mph - N/A   Clear
6:15 PM 67.5 °F 27.1 °F 22% 29.82 in 10.0 mi West 5.8 mph - N/A   Clear
6:35 PM 66.6 °F 25.9 °F 22% 29.82 in 10.0 mi WSW 6.9 mph - N/A   Clear
6:55 PM 66.4 °F 25.7 °F 22% 29.82 in 10.0 mi WSW 5.8 mph - N/A   Clear
7:15 PM 64.8 °F 26.4 °F 23% 29.82 in 10.0 mi WSW 5.8 mph - N/A   Clear
7:35 PM 63.5 °F 27.1 °F 25% 29.83 in 10.0 mi SW 4.6 mph - N/A   Clear
7:55 PM 62.2 °F 27.5 °F 27% 29.82 in 10.0 mi SW 4.6 mph - N/A   Clear
8:15 PM 61.5 °F 28.2 °F 28% 29.81 in 10.0 mi Calm Calm - N/A   Clear
8:35 PM 60.3 °F 28.0 °F 29% 29.81 in 10.0 mi SW 4.6 mph - N/A   Clear
8:55 PM 60.1 °F 27.5 °F 29% 29.81 in 10.0 mi SW 5.8 mph - N/A   Clear
9:15 PM 60.3 °F 27.7 °F 29% 29.80 in 10.0 mi SW 4.6 mph - N/A   Clear
9:35 PM 60.1 °F 27.7 °F 29% 29.80 in 10.0 mi SSW 5.8 mph - N/A   Clear
9:55 PM 58.1 °F 28.6 °F 32% 29.80 in 10.0 mi South 10.4 mph - N/A   Clear
10:15 PM 60.3 °F 31.8 °F 34% 29.80 in 10.0 mi South 9.2 mph - N/A   Clear
10:35 PM 59.9 °F 38.3 °F 45% 29.78 in 10.0 mi South 9.2 mph - N/A   Clear
10:55 PM 59.5 °F 44.8 °F 58% 29.79 in 10.0 mi South 9.2 mph - N/A   Clear
11:15 PM 57.7 °F 45.5 °F 64% 29.78 in 10.0 mi SSW 4.6 mph - N/A   Clear
11:35 PM 56.5 °F 46.0 °F 68% 29.76 in 10.0 mi Calm Calm - N/A   Clear
11:55 PM 55.8 °F 47.7 °F 74% 29.75 in 10.0 mi SSW 3.5 mph - N/A   Clear